User: anonymous   Login
Location: Unspecified
(0.0000°N, 0.0000°E)
Time: 06:55:45
(UTC+00:00)
Language:

STARLINK-31416 - Orbit

View from above orbital plane
View from above orbital plane
View from above satellite
View from above satellite

Ground track
Ground track

The orbit is defined by the following mean orbital elements,

1 59355U          26145.46271399 +.00000000 +00000-0 +20819-4 0 00003
2 59355  43.0004 186.3365 0001471 271.4664  88.6019 15.27585479    00
Epoch (UTC): 25 May 2026 11:06:18
Eccentricity: 0.0001471
inclination: 43.0004°
perigee height: 482 km
apogee height: 484 km
right ascension of ascending node: 186.3365°
argument of perigee: 271.4664°
revolutions per day: 15.27585479
mean anomaly at epoch: 88.6019°

The dashed part of the orbit path shows where the satellite is in the earth's shadow,  

DLR